Time,TemperatureF,DewpointF,PressureIn,WindDirection,WindDirectionDegrees,WindSpeedMPH,WindSpeedGustMPH,Humidity,HourlyPrecipIn,Conditions,Clouds,dailyrainin,SoftwareType,DateUTC
2013-02-28 00:00:00,42.2,34.1,29.72,NW,320,0.0,0.0,74,0.00,,,0.00,WX3IN1Plus v1.30,2013-02-28 05:00:00,
2013-02-28 00:05:00,42.1,34.1,29.72,NW,320,0.0,0.0,74,0.00,,,0.00,WX3IN1Plus v1.30,2013-02-28 05:05:00,
2013-02-28 00:10:00,42.2,34.1,29.71,NW,320,0.0,0.0,74,0.00,,,0.00,WX3IN1Plus v1.30,2013-02-28 05:10:00,
2013-02-28 00:15:00,42.0,34.1,29.71,NW,320,0.0,0.0,74,0.00,,,0.00,WX3IN1Plus v1.30,2013-02-28 05:15:00,
2013-02-28 00:20:00,42.1,34.3,29.71,NW,320,0.0,0.0,75,0.00,,,0.00,WX3IN1Plus v1.30,2013-02-28 05:20:00,
2013-02-28 00:25:00,42.2,34.1,29.71,NW,320,0.0,0.0,74,0.00,,,0.00,WX3IN1Plus v1.30,2013-02-28 05:25:00,
2013-02-28 00:30:00,42.1,34.1,29.71,NW,320,0.0,0.0,74,0.00,,,0.00,WX3IN1Plus v1.30,2013-02-28 05:30:00,
2013-02-28 00:35:00,42.1,34.1,29.71,NW,320,0.0,0.0,74,0.00,,,0.00,WX3IN1Plus v1.30,2013-02-28 05:35:00,
2013-02-28 00:40:00,42.2,34.1,29.71,NW,320,0.0,0.0,74,0.00,,,0.00,WX3IN1Plus v1.30,2013-02-28 05:40:00,
2013-02-28 00:45:00,42.1,34.1,29.71,NW,320,0.0,0.0,74,0.00,,,0.00,WX3IN1Plus v1.30,2013-02-28 05:45:00,
2013-02-28 00:50:00,42.0,34.1,29.71,NW,320,0.0,0.0,74,0.00,,,0.00,WX3IN1Plus v1.30,2013-02-28 05:50:00,
2013-02-28 00:55:00,42.0,34.1,29.71,NW,320,0.0,0.0,74,0.00,,,0.00,WX3IN1Plus v1.30,2013-02-28 05:55:00,
2013-02-28 01:00:00,42.1,34.1,29.71,NW,320,0.0,0.0,74,0.00,,,0.00,WX3IN1Plus v1.30,2013-02-28 06:00:00,
2013-02-28 01:05:00,41.9,34.3,29.71,NW,320,0.0,0.0,75,0.00,,,0.00,WX3IN1Plus v1.30,2013-02-28 06:05:00,
2013-02-28 01:10:00,42.1,34.8,29.71,NW,320,0.0,0.0,76,0.00,,,0.00,WX3IN1Plus v1.30,2013-02-28 06:10:00,
2013-02-28 01:15:00,42.1,34.8,29.71,NW,320,0.0,0.0,76,0.00,,,0.00,WX3IN1Plus v1.30,2013-02-28 06:15:00,
2013-02-28 01:20:00,42.0,35.2,29.71,NW,320,0.0,0.0,77,0.00,,,0.00,WX3IN1Plus v1.30,2013-02-28 06:20:00,
2013-02-28 01:25:00,42.1,35.2,29.71,NW,320,0.0,0.0,77,0.00,,,0.00,WX3IN1Plus v1.30,2013-02-28 06:25:00,
2013-02-28 01:30:00,41.8,34.8,29.72,NW,320,0.0,0.0,77,0.00,,,0.00,WX3IN1Plus v1.30,2013-02-28 06:30:00,
2013-02-28 01:35:00,41.9,35.2,29.71,NW,320,0.0,0.0,77,0.00,,,0.00,WX3IN1Plus v1.30,2013-02-28 06:35:00,
2013-02-28 01:40:00,42.0,34.8,29.71,NW,320,0.0,0.0,76,0.00,,,0.00,WX3IN1Plus v1.30,2013-02-28 06:40:00,
2013-02-28 01:45:00,41.8,34.7,29.71,NW,320,0.0,0.0,76,0.00,,,0.00,WX3IN1Plus v1.30,2013-02-28 06:45:00,
2013-02-28 01:50:00,42.1,34.8,29.71,NW,320,0.0,0.0,76,0.00,,,0.00,WX3IN1Plus v1.30,2013-02-28 06:50:00,
2013-02-28 01:55:00,41.9,35.2,29.72,NW,320,0.0,0.0,77,0.00,,,0.00,WX3IN1Plus v1.30,2013-02-28 06:55:00,
2013-02-28 02:00:00,41.9,34.8,29.71,NW,320,0.0,0.0,76,0.00,,,0.00,WX3IN1Plus v1.30,2013-02-28 07:00:00,
2013-02-28 02:05:00,41.9,35.2,29.71,NW,320,0.0,0.0,77,0.00,,,0.00,WX3IN1Plus v1.30,2013-02-28 07:05:00,
2013-02-28 02:10:00,41.8,35.2,29.72,NW,320,0.0,0.0,78,0.00,,,0.00,WX3IN1Plus v1.30,2013-02-28 07:10:00,
2013-02-28 02:15:00,41.9,35.6,29.72,NW,320,0.0,0.0,79,0.00,,,0.00,WX3IN1Plus v1.30,2013-02-28 07:15:00,
2013-02-28 02:20:00,42.1,35.6,29.71,NW,320,0.0,0.0,79,0.00,,,0.00,WX3IN1Plus v1.30,2013-02-28 07:20:00,
2013-02-28 02:25:00,42.1,35.4,29.71,NNW,347,0.8,4.5,78,0.00,,,0.00,WX3IN1Plus v1.30,2013-02-28 07:25:00,
2013-02-28 02:30:00,42.2,35.4,29.71,NNW,344,0.0,0.8,78,0.00,,,0.00,WX3IN1Plus v1.30,2013-02-28 07:30:00,
2013-02-28 02:35:00,42.5,35.6,29.71,NNW,344,0.0,0.0,77,0.00,,,0.00,WX3IN1Plus v1.30,2013-02-28 07:35:00,
2013-02-28 02:40:00,42.5,35.6,29.71,NNW,344,0.0,0.0,77,0.00,,,0.00,WX3IN1Plus v1.30,2013-02-28 07:40:00,
2013-02-28 02:45:00,42.6,35.6,29.71,NNW,344,0.0,0.0,77,0.00,,,0.00,WX3IN1Plus v1.30,2013-02-28 07:45:00,
2013-02-28 02:50:00,42.7,35.9,29.71,NNW,331,4.2,4.4,78,0.00,,,0.00,WX3IN1Plus v1.30,2013-02-28 07:50:00,
2013-02-28 02:55:00,43.0,36.1,29.71,NE,35,0.4,6.4,77,0.00,,,0.00,WX3IN1Plus v1.30,2013-02-28 07:55:00,
2013-02-28 03:00:00,43.1,36.1,29.72,NNW,345,2.1,2.1,77,0.00,,,0.00,WX3IN1Plus v1.30,2013-02-28 08:00:00,
2013-02-28 03:05:00,43.0,36.1,29.72,WNW,295,0.0,2.4,77,0.00,,,0.00,WX3IN1Plus v1.30,2013-02-28 08:05:00,
2013-02-28 03:10:00,43.0,36.1,29.72,North,358,6.6,9.5,77,0.00,,,0.00,WX3IN1Plus v1.30,2013-02-28 08:10:00,
2013-02-28 03:15:00,43.0,36.1,29.72,North,352,2.4,6.6,77,0.00,,,0.00,WX3IN1Plus v1.30,2013-02-28 08:15:00,
2013-02-28 03:20:00,43.1,36.6,29.72,NNW,341,2.9,6.2,79,0.00,,,0.00,WX3IN1Plus v1.30,2013-02-28 08:20:00,
2013-02-28 03:25:00,42.9,36.5,29.72,West,271,0.0,5.5,79,0.00,,,0.00,WX3IN1Plus v1.30,2013-02-28 08:25:00,
2013-02-28 03:30:00,42.9,36.8,29.72,NNW,329,1.2,6.3,80,0.00,,,0.00,WX3IN1Plus v1.30,2013-02-28 08:30:00,
2013-02-28 03:35:00,42.7,36.8,29.72,NNE,26,0.9,6.0,81,0.00,,,0.00,WX3IN1Plus v1.30,2013-02-28 08:35:00,
2013-02-28 03:40:00,42.5,36.8,29.72,NNW,345,2.1,5.0,81,0.00,,,0.00,WX3IN1Plus v1.30,2013-02-28 08:40:00,
2013-02-28 03:45:00,42.5,37.2,29.72,NW,309,0.0,5.1,82,0.01,,,0.01,WX3IN1Plus v1.30,2013-02-28 08:45:00,
2013-02-28 03:50:00,42.3,36.8,29.72,North,7,0.0,6.1,82,0.01,,,0.01,WX3IN1Plus v1.30,2013-02-28 08:50:00,
2013-02-28 03:55:00,42.2,36.8,29.71,ENE,57,2.9,5.7,83,0.01,,,0.01,WX3IN1Plus v1.30,2013-02-28 08:55:00,
2013-02-28 04:00:00,42.1,36.8,29.71,North,355,0.4,4.7,83,0.01,,,0.01,WX3IN1Plus v1.30,2013-02-28 09:00:00,
2013-02-28 04:05:00,42.0,36.8,29.71,North,355,0.0,0.4,83,0.02,,,0.02,WX3IN1Plus v1.30,2013-02-28 09:05:00,
2013-02-28 04:10:00,41.9,37.4,29.71,North,355,0.0,0.0,84,0.02,,,0.02,WX3IN1Plus v1.30,2013-02-28 09:10:00,
2013-02-28 04:15:00,41.9,37.4,29.71,North,355,0.0,0.0,84,0.02,,,0.02,WX3IN1Plus v1.30,2013-02-28 09:15:00,
2013-02-28 04:20:00,41.7,36.8,29.71,North,355,0.0,0.0,84,0.02,,,0.02,WX3IN1Plus v1.30,2013-02-28 09:20:00,
2013-02-28 04:25:00,41.6,37.2,29.70,North,0,0.0,4.4,85,0.03,,,0.03,WX3IN1Plus v1.30,2013-02-28 09:25:00,
2013-02-28 04:30:00,41.6,37.2,29.70,North,0,0.0,0.0,85,0.03,,,0.03,WX3IN1Plus v1.30,2013-02-28 09:30:00,
2013-02-28 04:35:00,41.6,37.4,29.70,NNE,16,0.0,2.0,86,0.03,,,0.03,WX3IN1Plus v1.30,2013-02-28 09:35:00,
2013-02-28 04:40:00,41.4,37.2,29.70,NNE,16,0.0,0.0,86,0.02,,,0.03,WX3IN1Plus v1.30,2013-02-28 09:40:00,
2013-02-28 04:45:00,41.2,37.2,29.70,NNE,16,0.0,0.0,86,0.02,,,0.03,WX3IN1Plus v1.30,2013-02-28 09:45:00,
2013-02-28 04:50:00,41.3,37.2,29.70,NNE,16,0.0,0.0,86,0.02,,,0.03,WX3IN1Plus v1.30,2013-02-28 09:50:00,
2013-02-28 04:55:00,41.2,37.2,29.70,NNE,16,0.0,0.0,86,0.02,,,0.03,WX3IN1Plus v1.30,2013-02-28 09:55:00,
2013-02-28 05:00:00,41.1,36.8,29.70,NNE,16,0.0,0.0,86,0.02,,,0.03,WX3IN1Plus v1.30,2013-02-28 10:00:00,
2013-02-28 05:05:00,41.1,37.2,29.70,NNE,16,0.0,0.0,87,0.01,,,0.03,WX3IN1Plus v1.30,2013-02-28 10:05:00,
2013-02-28 05:10:00,41.0,37.2,29.70,NNE,16,0.0,0.0,87,0.01,,,0.03,WX3IN1Plus v1.30,2013-02-28 10:10:00,
2013-02-28 05:15:00,41.0,37.2,29.70,NNE,16,0.0,0.0,87,0.01,,,0.03,WX3IN1Plus v1.30,2013-02-28 10:15:00,
2013-02-28 05:20:00,41.1,37.2,29.70,NNE,16,0.0,0.0,87,0.01,,,0.03,WX3IN1Plus v1.30,2013-02-28 10:20:00,
2013-02-28 05:25:00,41.1,37.2,29.70,NNE,16,0.0,0.0,87,0.00,,,0.03,WX3IN1Plus v1.30,2013-02-28 10:25:00,
2013-02-28 05:30:00,40.8,37.2,29.70,NNE,16,0.0,0.0,88,0.00,,,0.03,WX3IN1Plus v1.30,2013-02-28 10:30:00,
2013-02-28 05:35:00,40.7,37.2,29.70,NNE,16,0.0,0.0,88,0.00,,,0.03,WX3IN1Plus v1.30,2013-02-28 10:35:00,
2013-02-28 05:41:00,40.8,37.2,29.70,NNE,16,0.0,0.0,88,0.00,,,0.03,WX3IN1Plus v1.30,2013-02-28 10:41:00,
2013-02-28 05:46:00,40.8,37.4,29.70,NNE,16,0.0,0.0,89,0.00,,,0.03,WX3IN1Plus v1.30,2013-02-28 10:46:00,
2013-02-28 05:51:00,40.6,37.2,29.70,NNE,16,0.0,0.0,89,0.00,,,0.03,WX3IN1Plus v1.30,2013-02-28 10:51:00,
2013-02-28 05:56:00,40.7,37.4,29.71,NW,310,0.0,2.9,89,0.00,,,0.03,WX3IN1Plus v1.30,2013-02-28 10:56:00,
2013-02-28 06:01:00,40.6,37.4,29.71,NW,310,0.0,0.0,90,0.00,,,0.03,WX3IN1Plus v1.30,2013-02-28 11:01:00,
2013-02-28 06:06:00,40.7,37.7,29.71,NW,310,0.0,0.0,90,0.00,,,0.03,WX3IN1Plus v1.30,2013-02-28 11:06:00,
2013-02-28 06:11:00,40.6,37.2,29.71,North,11,1.3,4.4,89,0.00,,,0.03,WX3IN1Plus v1.30,2013-02-28 11:11:00,
2013-02-28 06:16:00,40.6,36.5,29.71,NNE,14,3.6,8.8,86,0.00,,,0.03,WX3IN1Plus v1.30,2013-02-28 11:16:00,
2013-02-28 06:21:00,40.4,35.6,29.71,NNE,15,3.7,9.5,84,0.00,,,0.03,WX3IN1Plus v1.30,2013-02-28 11:21:00,
2013-02-28 06:26:00,40.7,34.8,29.71,North,9,2.1,8.9,80,0.00,,,0.03,WX3IN1Plus v1.30,2013-02-28 11:26:00,
2013-02-28 06:31:00,40.9,35.4,29.71,WSW,244,0.0,4.5,82,0.00,,,0.03,WX3IN1Plus v1.30,2013-02-28 11:31:00,
2013-02-28 06:36:00,40.8,34.8,29.71,NW,306,0.0,3.8,80,0.00,,,0.03,WX3IN1Plus v1.30,2013-02-28 11:36:00,
2013-02-28 06:41:00,40.8,35.2,29.71,WSW,240,0.0,1.1,81,0.00,,,0.03,WX3IN1Plus v1.30,2013-02-28 11:41:00,
2013-02-28 06:46:00,40.7,35.2,29.71,WSW,240,0.0,0.0,81,0.00,,,0.03,WX3IN1Plus v1.30,2013-02-28 11:46:00,
2013-02-28 06:51:00,40.8,35.4,29.71,WSW,240,0.0,0.0,82,0.00,,,0.03,WX3IN1Plus v1.30,2013-02-28 11:51:00,
2013-02-28 06:56:00,40.5,34.8,29.71,NNW,334,0.0,1.3,81,0.00,,,0.03,WX3IN1Plus v1.30,2013-02-28 11:56:00,
2013-02-28 07:01:00,40.6,34.8,29.71,NNW,334,0.0,0.0,81,0.00,,,0.03,WX3IN1Plus v1.30,2013-02-28 12:01:00,
2013-02-28 07:06:00,40.4,34.8,29.71,NNW,334,0.0,0.0,82,0.00,,,0.03,WX3IN1Plus v1.30,2013-02-28 12:06:00,
2013-02-28 07:11:00,40.5,35.4,29.72,NW,319,0.0,0.5,83,0.00,,,0.03,WX3IN1Plus v1.30,2013-02-28 12:11:00,
2013-02-28 07:16:00,40.5,35.2,29.72,NW,322,0.0,1.9,82,0.00,,,0.03,WX3IN1Plus v1.30,2013-02-28 12:16:00,
2013-02-28 07:21:00,40.4,34.3,29.72,North,8,0.6,4.9,80,0.00,,,0.03,WX3IN1Plus v1.30,2013-02-28 12:21:00,
2013-02-28 07:26:00,40.3,33.9,29.72,North,9,0.0,3.2,79,0.00,,,0.03,WX3IN1Plus v1.30,2013-02-28 12:26:00,
2013-02-28 07:31:00,40.5,34.7,29.72,NNW,347,0.0,1.9,80,0.00,,,0.03,WX3IN1Plus v1.30,2013-02-28 12:31:00,
2013-02-28 07:36:00,40.6,34.7,29.73,NNW,347,0.0,0.0,80,0.00,,,0.03,WX3IN1Plus v1.30,2013-02-28 12:36:00,
2013-02-28 07:41:00,40.9,34.8,29.72,NNW,347,0.0,0.0,80,0.00,,,0.03,WX3IN1Plus v1.30,2013-02-28 12:41:00,
2013-02-28 07:46:00,40.9,34.1,29.73,NW,309,0.0,1.3,78,0.00,,,0.03,WX3IN1Plus v1.30,2013-02-28 12:46:00,
2013-02-28 07:51:00,40.8,34.3,29.73,WSW,250,0.4,2.9,79,0.00,,,0.03,WX3IN1Plus v1.30,2013-02-28 12:51:00,
2013-02-28 07:56:00,40.9,33.9,29.73,NW,326,1.6,3.7,77,0.00,,,0.03,WX3IN1Plus v1.30,2013-02-28 12:56:00,
2013-02-28 08:01:00,41.0,33.4,29.73,NNW,336,2.4,4.1,75,0.00,,,0.03,WX3IN1Plus v1.30,2013-02-28 13:01:00,
2013-02-28 08:06:00,41.2,33.4,29.73,WNW,302,1.4,4.7,74,0.00,,,0.03,WX3IN1Plus v1.30,2013-02-28 13:06:00,
2013-02-28 08:11:00,41.0,32.9,29.73,WNW,303,0.0,4.2,73,0.00,,,0.03,WX3IN1Plus v1.30,2013-02-28 13:11:00,
2013-02-28 08:16:00,41.1,33.4,29.73,North,350,1.1,3.4,75,0.00,,,0.03,WX3IN1Plus v1.30,2013-02-28 13:16:00,
2013-02-28 08:21:00,41.3,33.6,29.73,SW,232,0.0,3.1,75,0.00,,,0.03,WX3IN1Plus v1.30,2013-02-28 13:21:00,
2013-02-28 08:26:00,41.3,33.0,29.74,West,281,0.0,3.9,73,0.00,,,0.03,WX3IN1Plus v1.30,2013-02-28 13:26:00,
2013-02-28 08:31:00,41.2,32.0,29.73,NNW,341,0.0,6.0,70,0.00,,,0.03,WX3IN1Plus v1.30,2013-02-28 13:31:00,
2013-02-28 08:36:00,41.3,32.0,29.73,NNW,348,0.0,6.6,70,0.00,,,0.03,WX3IN1Plus v1.30,2013-02-28 13:36:00,
2013-02-28 08:41:00,41.4,31.9,29.73,WNW,286,0.0,6.4,69,0.00,,,0.03,WX3IN1Plus v1.30,2013-02-28 13:41:00,
2013-02-28 08:46:00,41.4,32.0,29.73,North,2,0.0,5.6,70,0.00,,,0.03,WX3IN1Plus v1.30,2013-02-28 13:46:00,
2013-02-28 08:51:00,41.4,31.9,29.73,WNW,302,0.0,5.0,69,0.00,,,0.03,WX3IN1Plus v1.30,2013-02-28 13:51:00,
2013-02-28 08:56:00,41.6,31.3,29.73,North,358,3.5,6.4,67,0.00,,,0.03,WX3IN1Plus v1.30,2013-02-28 13:56:00,
2013-02-28 09:01:00,41.4,31.9,29.73,NW,316,0.0,3.5,69,0.00,,,0.03,WX3IN1Plus v1.30,2013-02-28 14:01:00,
2013-02-28 09:06:00,41.8,31.7,29.73,NW,313,0.0,6.9,67,0.00,,,0.03,WX3IN1Plus v1.30,2013-02-28 14:06:00,
2013-02-28 09:11:00,42.0,31.9,29.73,NW,313,4.5,8.3,67,0.00,,,0.03,WX3IN1Plus v1.30,2013-02-28 14:11:00,
2013-02-28 09:16:00,42.1,31.3,29.73,North,9,1.9,5.7,66,0.00,,,0.03,WX3IN1Plus v1.30,2013-02-28 14:16:00,
2013-02-28 09:21:00,42.3,31.3,29.73,NW,323,0.0,5.9,65,0.00,,,0.03,WX3IN1Plus v1.30,2013-02-28 14:21:00,
2013-02-28 09:26:00,42.5,31.1,29.73,NE,45,3.3,6.0,64,0.00,,,0.03,WX3IN1Plus v1.30,2013-02-28 14:26:00,
2013-02-28 09:31:00,42.9,31.1,29.73,NNE,14,2.9,8.7,63,0.00,,,0.03,WX3IN1Plus v1.30,2013-02-28 14:31:00,
2013-02-28 09:36:00,43.3,31.3,29.73,NNW,336,2.7,6.0,63,0.00,,,0.03,WX3IN1Plus v1.30,2013-02-28 14:36:00,
2013-02-28 09:41:00,43.5,31.0,29.73,North,358,3.2,5.5,61,0.00,,,0.03,WX3IN1Plus v1.30,2013-02-28 14:41:00,
2013-02-28 09:46:00,44.0,30.4,29.73,NNW,333,8.5,9.3,59,0.00,,,0.03,WX3IN1Plus v1.30,2013-02-28 14:46:00,
2013-02-28 09:51:00,44.1,29.9,29.73,NNW,341,5.9,8.9,57,0.00,,,0.03,WX3IN1Plus v1.30,2013-02-28 14:51:00,
2013-02-28 09:56:00,44.3,30.2,29.73,NNE,23,6.0,10.4,57,0.00,,,0.03,WX3IN1Plus v1.30,2013-02-28 14:56:00,
2013-02-28 10:01:00,44.9,28.4,29.73,NNE,25,7.2,16.4,52,0.00,,,0.03,WX3IN1Plus v1.30,2013-02-28 15:01:00,
2013-02-28 10:06:00,44.7,29.0,29.72,North,358,3.2,11.0,54,0.00,,,0.03,WX3IN1Plus v1.30,2013-02-28 15:06:00,
2013-02-28 10:11:00,44.9,29.7,29.72,NE,40,7.5,10.3,55,0.00,,,0.03,WX3IN1Plus v1.30,2013-02-28 15:11:00,
2013-02-28 10:16:00,45.4,29.7,29.73,NNW,341,9.0,10.9,54,0.00,,,0.03,WX3IN1Plus v1.30,2013-02-28 15:16:00,
2013-02-28 10:21:00,45.4,29.0,29.72,NW,307,5.2,9.5,52,0.00,,,0.03,WX3IN1Plus v1.30,2013-02-28 15:21:00,
2013-02-28 10:26:00,45.7,29.2,29.72,North,352,4.2,9.7,52,0.00,,,0.03,WX3IN1Plus v1.30,2013-02-28 15:26:00,
2013-02-28 10:31:00,45.6,29.0,29.72,NW,320,4.4,8.5,52,0.00,,,0.03,WX3IN1Plus v1.30,2013-02-28 15:31:00,
2013-02-28 10:36:00,45.7,29.2,29.72,NW,322,6.4,11.9,52,0.00,,,0.03,WX3IN1Plus v1.30,2013-02-28 15:36:00,
2013-02-28 10:41:00,45.8,29.9,29.72,NW,326,7.1,10.1,54,0.00,,,0.03,WX3IN1Plus v1.30,2013-02-28 15:41:00,
2013-02-28 10:46:00,46.0,29.3,29.72,West,271,1.4,8.7,52,0.00,,,0.03,WX3IN1Plus v1.30,2013-02-28 15:46:00,
2013-02-28 10:51:00,46.4,29.0,29.72,NNW,348,2.9,6.9,50,0.00,,,0.03,WX3IN1Plus v1.30,2013-02-28 15:51:00,
2013-02-28 10:56:00,46.6,28.4,29.72,NNW,340,3.4,11.1,49,0.00,,,0.03,WX3IN1Plus v1.30,2013-02-28 15:56:00,
2013-02-28 11:01:00,46.2,26.8,29.72,North,358,4.5,11.6,47,0.00,,,0.03,WX3IN1Plus v1.30,2013-02-28 16:01:00,
2013-02-28 11:06:00,46.3,28.3,29.72,North,9,1.8,11.0,49,0.00,,,0.03,WX3IN1Plus v1.30,2013-02-28 16:06:00,
2013-02-28 11:11:00,46.7,29.0,29.72,West,267,0.0,7.8,50,0.00,,,0.03,WX3IN1Plus v1.30,2013-02-28 16:11:00,
2013-02-28 11:16:00,47.1,27.7,29.72,NW,316,3.4,8.8,47,0.00,,,0.03,WX3IN1Plus v1.30,2013-02-28 16:16:00,
2013-02-28 11:21:00,47.3,27.5,29.72,NNW,347,5.0,8.4,46,0.00,,,0.03,WX3IN1Plus v1.30,2013-02-28 16:21:00,
2013-02-28 11:26:00,47.5,27.7,29.71,WNW,288,5.7,11.9,46,0.00,,,0.03,WX3IN1Plus v1.30,2013-02-28 16:26:00,
2013-02-28 11:31:00,47.7,27.2,29.71,NE,37,4.4,8.8,45,0.00,,,0.03,WX3IN1Plus v1.30,2013-02-28 16:31:00,
2013-02-28 11:36:00,47.7,27.2,29.71,NNW,333,4.9,11.1,45,0.00,,,0.03,WX3IN1Plus v1.30,2013-02-28 16:36:00,
2013-02-28 11:41:00,47.8,27.7,29.71,WNW,284,1.8,6.4,46,0.00,,,0.03,WX3IN1Plus v1.30,2013-02-28 16:41:00,
2013-02-28 11:46:00,48.2,26.8,29.71,NE,37,1.5,11.6,43,0.00,,,0.03,WX3IN1Plus v1.30,2013-02-28 16:46:00,
2013-02-28 11:51:00,47.9,26.5,29.71,NW,307,3.0,8.6,43,0.00,,,0.03,WX3IN1Plus v1.30,2013-02-28 16:51:00,
2013-02-28 11:56:00,47.9,27.0,29.71,North,355,6.2,10.0,44,0.00,,,0.03,WX3IN1Plus v1.30,2013-02-28 16:56:00,
2013-02-28 12:01:00,47.4,27.0,29.71,North,7,5.8,15.6,45,0.00,,,0.03,WX3IN1Plus v1.30,2013-02-28 17:01:00,
2013-02-28 12:06:00,47.4,26.5,29.71,North,358,8.7,16.4,44,0.00,,,0.03,WX3IN1Plus v1.30,2013-02-28 17:06:00,
2013-02-28 12:11:00,47.0,26.8,29.71,NNW,336,4.4,12.9,45,0.00,,,0.03,WX3IN1Plus v1.30,2013-02-28 17:11:00,
2013-02-28 12:16:00,46.7,26.3,29.71,NW,317,8.1,12.1,45,0.00,,,0.03,WX3IN1Plus v1.30,2013-02-28 17:16:00,
2013-02-28 12:21:00,46.2,25.7,29.71,NNW,345,2.9,17.7,45,0.00,,,0.03,WX3IN1Plus v1.30,2013-02-28 17:21:00,
2013-02-28 12:26:00,46.1,26.8,29.71,North,1,4.1,10.2,47,0.00,,,0.03,WX3IN1Plus v1.30,2013-02-28 17:26:00,
2013-02-28 12:31:00,46.0,26.8,29.71,NNW,344,4.7,13.3,47,0.00,,,0.03,WX3IN1Plus v1.30,2013-02-28 17:31:00,
2013-02-28 12:36:00,45.7,26.5,29.71,NNE,22,4.7,13.3,47,0.00,,,0.03,WX3IN1Plus v1.30,2013-02-28 17:36:00,
2013-02-28 12:41:00,45.7,27.2,29.71,WNW,289,3.1,12.1,48,0.00,,,0.03,WX3IN1Plus v1.30,2013-02-28 17:41:00,
2013-02-28 12:46:00,45.6,27.0,29.71,NE,35,0.8,9.6,48,0.00,,,0.03,WX3IN1Plus v1.30,2013-02-28 17:46:00,
2013-02-28 12:51:00,45.1,27.0,29.71,West,261,2.4,10.8,49,0.00,,,0.03,WX3IN1Plus v1.30,2013-02-28 17:51:00,
2013-02-28 12:56:00,45.2,27.2,29.71,NNW,338,5.3,10.3,49,0.00,,,0.03,WX3IN1Plus v1.30,2013-02-28 17:56:00,
2013-02-28 13:01:00,45.3,27.7,29.71,NW,310,3.7,8.8,50,0.00,,,0.03,WX3IN1Plus v1.30,2013-02-28 18:01:00,
2013-02-28 13:06:00,45.7,27.7,29.71,NNW,340,11.5,13.9,49,0.00,,,0.03,WX3IN1Plus v1.30,2013-02-28 18:06:00,
2013-02-28 13:11:00,46.0,27.5,29.71,NNE,21,5.7,13.9,48,0.00,,,0.03,WX3IN1Plus v1.30,2013-02-28 18:11:00,
2013-02-28 13:16:00,45.7,27.7,29.71,NW,322,5.2,12.9,49,0.00,,,0.03,WX3IN1Plus v1.30,2013-02-28 18:16:00,
2013-02-28 13:21:00,46.0,27.9,29.71,North,11,5.0,15.1,49,0.00,,,0.03,WX3IN1Plus v1.30,2013-02-28 18:21:00,
2013-02-28 13:26:00,45.9,27.9,29.70,NNW,327,7.5,11.0,49,0.00,,,0.03,WX3IN1Plus v1.30,2013-02-28 18:26:00,
2013-02-28 13:31:00,46.1,28.4,29.70,North,8,5.5,10.5,50,0.00,,,0.03,WX3IN1Plus v1.30,2013-02-28 18:31:00,
2013-02-28 13:36:00,46.1,28.4,29.70,NNE,26,3.6,11.3,50,0.00,,,0.03,WX3IN1Plus v1.30,2013-02-28 18:36:00,
2013-02-28 13:41:00,46.2,28.4,29.71,ENE,63,3.1,11.6,50,0.00,,,0.03,WX3IN1Plus v1.30,2013-02-28 18:41:00,
2013-02-28 13:46:00,46.1,28.4,29.70,North,355,8.0,14.4,50,0.00,,,0.03,WX3IN1Plus v1.30,2013-02-28 18:46:00,
2013-02-28 13:51:00,46.0,28.4,29.71,NW,316,3.2,16.5,50,0.00,,,0.03,WX3IN1Plus v1.30,2013-02-28 18:51:00,
2013-02-28 13:56:00,45.8,28.6,29.70,North,354,7.3,13.7,51,0.00,,,0.03,WX3IN1Plus v1.30,2013-02-28 18:56:00,
2013-02-28 14:01:00,45.7,29.7,29.71,NNW,334,12.1,18.3,53,0.00,,,0.03,WX3IN1Plus v1.30,2013-02-28 19:01:00,
2013-02-28 14:06:00,45.6,29.7,29.70,NNW,340,6.0,13.9,54,0.00,,,0.03,WX3IN1Plus v1.30,2013-02-28 19:06:00,
2013-02-28 14:11:00,45.3,29.9,29.71,WNW,282,1.4,15.2,55,0.00,,,0.03,WX3IN1Plus v1.30,2013-02-28 19:11:00,
2013-02-28 14:16:00,45.0,29.2,29.71,WSW,239,1.4,11.7,54,0.00,,,0.03,WX3IN1Plus v1.30,2013-02-28 19:16:00,
2013-02-28 14:21:00,45.1,30.2,29.71,NNE,14,4.3,12.5,56,0.00,,,0.03,WX3IN1Plus v1.30,2013-02-28 19:21:00,
2013-02-28 14:26:00,44.9,30.2,29.71,WSW,240,2.1,14.7,56,0.00,,,0.03,WX3IN1Plus v1.30,2013-02-28 19:26:00,
2013-02-28 14:31:00,45.0,30.2,29.71,NNW,344,6.6,17.2,56,0.00,,,0.03,WX3IN1Plus v1.30,2013-02-28 19:31:00,
2013-02-28 14:36:00,45.1,30.2,29.71,NNW,340,4.9,13.0,56,0.00,,,0.03,WX3IN1Plus v1.30,2013-02-28 19:36:00,
2013-02-28 14:41:00,45.1,30.6,29.71,SW,226,8.6,10.3,57,0.00,,,0.03,WX3IN1Plus v1.30,2013-02-28 19:41:00,
2013-02-28 14:46:00,45.3,30.4,29.71,North,11,4.2,11.6,56,0.00,,,0.03,WX3IN1Plus v1.30,2013-02-28 19:46:00,
2013-02-28 14:51:00,45.3,30.4,29.71,West,268,2.5,16.4,56,0.00,,,0.03,WX3IN1Plus v1.30,2013-02-28 19:51:00,
2013-02-28 14:56:00,45.4,30.6,29.71,WNW,286,6.0,12.4,56,0.00,,,0.03,WX3IN1Plus v1.30,2013-02-28 19:56:00,
2013-02-28 15:02:00,45.8,31.0,29.71,NW,319,3.9,13.2,56,0.00,,,0.03,WX3IN1Plus v1.30,2013-02-28 20:02:00,
2013-02-28 15:07:00,46.3,30.4,29.71,NW,306,3.4,10.3,54,0.00,,,0.03,WX3IN1Plus v1.30,2013-02-28 20:07:00,
2013-02-28 15:12:00,47.0,31.0,29.70,SW,232,5.0,10.7,53,0.00,,,0.03,WX3IN1Plus v1.30,2013-02-28 20:12:00,
2013-02-28 15:17:00,47.1,29.3,29.70,SW,232,2.8,11.8,50,0.00,,,0.03,WX3IN1Plus v1.30,2013-02-28 20:17:00,
2013-02-28 15:22:00,47.0,29.9,29.70,NW,307,3.8,12.1,51,0.00,,,0.03,WX3IN1Plus v1.30,2013-02-28 20:22:00,
2013-02-28 15:27:00,46.7,29.3,29.70,WNW,299,0.6,6.5,51,0.00,,,0.03,WX3IN1Plus v1.30,2013-02-28 20:27:00,
2013-02-28 15:32:00,46.3,29.2,29.71,WNW,292,4.5,9.1,51,0.00,,,0.03,WX3IN1Plus v1.30,2013-02-28 20:32:00,
2013-02-28 15:37:00,46.1,29.9,29.70,North,357,1.7,6.8,53,0.00,,,0.03,WX3IN1Plus v1.30,2013-02-28 20:37:00,
2013-02-28 15:42:00,46.1,30.2,29.71,North,352,7.7,8.1,54,0.00,,,0.03,WX3IN1Plus v1.30,2013-02-28 20:42:00,
2013-02-28 15:47:00,45.7,29.7,29.71,NNE,14,3.4,10.1,53,0.00,,,0.03,WX3IN1Plus v1.30,2013-02-28 20:47:00,
2013-02-28 15:52:00,45.7,29.7,29.71,NNE,18,5.6,11.7,53,0.00,,,0.03,WX3IN1Plus v1.30,2013-02-28 20:52:00,
2013-02-28 15:57:00,45.2,29.3,29.71,North,355,7.2,14.7,54,0.00,,,0.03,WX3IN1Plus v1.30,2013-02-28 20:57:00,
2013-02-28 16:02:00,45.1,29.2,29.71,NNW,334,6.7,10.1,54,0.00,,,0.03,WX3IN1Plus v1.30,2013-02-28 21:02:00,
2013-02-28 16:07:00,44.6,29.9,29.71,NNE,29,4.9,9.3,56,0.00,,,0.03,WX3IN1Plus v1.30,2013-02-28 21:07:00,
2013-02-28 16:12:00,44.5,29.7,29.71,North,350,4.4,8.7,56,0.00,,,0.03,WX3IN1Plus v1.30,2013-02-28 21:12:00,
2013-02-28 16:17:00,44.3,29.2,29.71,NNW,343,4.4,11.6,55,0.00,,,0.03,WX3IN1Plus v1.30,2013-02-28 21:17:00,
2013-02-28 16:22:00,44.3,29.7,29.71,West,277,3.2,12.4,56,0.00,,,0.03,WX3IN1Plus v1.30,2013-02-28 21:22:00,
2013-02-28 16:27:00,44.0,29.2,29.71,NNW,338,9.4,9.6,56,0.00,,,0.03,WX3IN1Plus v1.30,2013-02-28 21:27:00,
2013-02-28 16:32:00,44.1,29.3,29.71,NNE,15,6.2,10.5,56,0.00,,,0.03,WX3IN1Plus v1.30,2013-02-28 21:32:00,
2013-02-28 16:37:00,44.0,29.2,29.71,North,358,4.8,8.5,56,0.00,,,0.03,WX3IN1Plus v1.30,2013-02-28 21:37:00,
2013-02-28 16:42:00,44.2,29.0,29.71,NW,326,4.1,10.6,55,0.00,,,0.03,WX3IN1Plus v1.30,2013-02-28 21:42:00,
2013-02-28 16:47:00,44.3,28.6,29.71,West,268,3.3,12.1,54,0.00,,,0.03,WX3IN1Plus v1.30,2013-02-28 21:47:00,
2013-02-28 16:52:00,44.5,28.4,29.71,NNW,336,4.2,12.4,53,0.00,,,0.03,WX3IN1Plus v1.30,2013-02-28 21:52:00,
2013-02-28 16:57:00,44.3,28.4,29.71,NW,305,5.0,10.3,53,0.00,,,0.03,WX3IN1Plus v1.30,2013-02-28 21:57:00,
2013-02-28 17:02:00,44.4,27.9,29.71,NW,307,3.0,14.0,52,0.00,,,0.03,WX3IN1Plus v1.30,2013-02-28 22:02:00,
2013-02-28 17:07:00,44.0,27.5,29.71,NNE,21,5.7,14.3,52,0.00,,,0.03,WX3IN1Plus v1.30,2013-02-28 22:07:00,
2013-02-28 17:12:00,43.7,27.2,29.72,North,0,5.4,12.1,52,0.00,,,0.03,WX3IN1Plus v1.30,2013-02-28 22:12:00,
2013-02-28 17:17:00,43.9,27.9,29.71,NW,306,4.4,10.6,53,0.00,,,0.03,WX3IN1Plus v1.30,2013-02-28 22:17:00,
2013-02-28 17:22:00,43.5,27.5,29.72,WNW,293,2.6,11.6,53,0.00,,,0.03,WX3IN1Plus v1.30,2013-02-28 22:22:00,
2013-02-28 17:27:00,43.7,27.9,29.72,North,352,5.3,10.0,54,0.00,,,0.03,WX3IN1Plus v1.30,2013-02-28 22:27:00,
2013-02-28 17:32:00,43.6,27.9,29.72,NW,312,5.4,9.3,54,0.00,,,0.03,WX3IN1Plus v1.30,2013-02-28 22:32:00,
2013-02-28 17:37:00,43.4,28.3,29.71,North,354,6.0,11.4,55,0.00,,,0.03,WX3IN1Plus v1.30,2013-02-28 22:37:00,
2013-02-28 17:42:00,43.3,27.5,29.72,NNW,347,4.4,10.8,54,0.00,,,0.03,WX3IN1Plus v1.30,2013-02-28 22:42:00,
2013-02-28 17:47:00,43.5,28.3,29.72,NNW,338,4.0,8.2,55,0.00,,,0.03,WX3IN1Plus v1.30,2013-02-28 22:47:00,
2013-02-28 17:52:00,43.5,28.3,29.72,NW,317,1.3,8.1,55,0.00,,,0.03,WX3IN1Plus v1.30,2013-02-28 22:52:00,
2013-02-28 17:57:00,43.3,27.5,29.72,WNW,299,5.6,13.9,54,0.00,,,0.03,WX3IN1Plus v1.30,2013-02-28 22:57:00,
2013-02-28 18:02:00,43.1,27.9,29.72,North,358,9.8,13.8,55,0.00,,,0.03,WX3IN1Plus v1.30,2013-02-28 23:02:00,
2013-02-28 18:07:00,43.0,28.4,29.72,North,358,6.3,15.7,56,0.00,,,0.03,WX3IN1Plus v1.30,2013-02-28 23:07:00,
2013-02-28 18:12:00,43.0,29.0,29.73,NW,326,10.2,13.9,57,0.00,,,0.03,WX3IN1Plus v1.30,2013-02-28 23:12:00,
2013-02-28 18:17:00,42.9,29.2,29.73,North,358,4.7,14.5,58,0.00,,,0.03,WX3IN1Plus v1.30,2013-02-28 23:17:00,
2013-02-28 18:22:00,42.4,28.6,29.73,NW,310,6.2,12.3,58,0.00,,,0.03,WX3IN1Plus v1.30,2013-02-28 23:22:00,
2013-02-28 18:27:00,42.4,29.0,29.73,NNE,16,6.2,15.9,59,0.00,,,0.03,WX3IN1Plus v1.30,2013-02-28 23:27:00,
2013-02-28 18:32:00,42.1,29.2,29.73,NNW,334,10.1,14.8,60,0.00,,,0.03,WX3IN1Plus v1.30,2013-02-28 23:32:00,
2013-02-28 18:37:00,42.0,29.7,29.73,North,1,4.5,13.1,61,0.00,,,0.03,WX3IN1Plus v1.30,2013-02-28 23:37:00,
2013-02-28 18:42:00,41.8,29.3,29.73,NNW,343,6.6,10.1,61,0.00,,,0.03,WX3IN1Plus v1.30,2013-02-28 23:42:00,
2013-02-28 18:47:00,41.7,29.2,29.73,West,260,2.6,12.3,61,0.00,,,0.03,WX3IN1Plus v1.30,2013-02-28 23:47:00,
2013-02-28 18:52:00,41.7,29.2,29.74,NNE,18,8.2,10.7,61,0.00,,,0.03,WX3IN1Plus v1.30,2013-02-28 23:52:00,
2013-02-28 18:57:00,41.8,29.7,29.74,WSW,248,1.3,10.6,62,0.00,,,0.03,WX3IN1Plus v1.30,2013-02-28 23:57:00,
2013-02-28 19:02:00,41.5,29.2,29.74,NW,320,7.3,11.5,62,0.00,,,0.03,WX3IN1Plus v1.30,2013-03-01 00:02:00,
2013-02-28 19:07:00,41.6,29.9,29.74,West,275,0.7,7.8,63,0.00,,,0.03,WX3IN1Plus v1.30,2013-03-01 00:07:00,
2013-02-28 19:12:00,41.4,29.7,29.74,NW,320,0.0,9.6,63,0.00,,,0.03,WX3IN1Plus v1.30,2013-03-01 00:12:00,
2013-02-28 19:17:00,41.4,29.7,29.74,WNW,291,1.3,8.2,63,0.00,,,0.03,WX3IN1Plus v1.30,2013-03-01 00:17:00,
2013-02-28 19:22:00,41.4,29.7,29.75,NW,316,3.6,8.7,63,0.00,,,0.03,WX3IN1Plus v1.30,2013-03-01 00:22:00,
2013-02-28 19:27:00,41.3,29.7,29.75,NNE,29,7.5,10.4,63,0.00,,,0.03,WX3IN1Plus v1.30,2013-03-01 00:27:00,
2013-02-28 19:32:00,41.2,29.9,29.75,NNE,22,2.1,8.5,64,0.00,,,0.03,WX3IN1Plus v1.30,2013-03-01 00:32:00,
2013-02-28 19:37:00,41.0,29.7,29.75,WNW,295,6.4,8.2,64,0.00,,,0.03,WX3IN1Plus v1.30,2013-03-01 00:37:00,
2013-02-28 19:42:00,41.0,29.7,29.75,WNW,284,3.0,7.0,64,0.00,,,0.03,WX3IN1Plus v1.30,2013-03-01 00:42:00,
2013-02-28 19:47:00,40.9,29.9,29.75,NW,317,5.2,7.7,65,0.00,,,0.03,WX3IN1Plus v1.30,2013-03-01 00:47:00,
2013-02-28 19:52:00,40.9,29.9,29.75,WNW,295,3.4,5.2,65,0.00,,,0.03,WX3IN1Plus v1.30,2013-03-01 00:52:00,
2013-02-28 19:57:00,40.8,29.9,29.75,West,277,0.5,4.2,65,0.00,,,0.03,WX3IN1Plus v1.30,2013-03-01 00:57:00,
2013-02-28 20:02:00,40.8,29.9,29.76,NW,323,2.6,6.8,65,0.00,,,0.03,WX3IN1Plus v1.30,2013-03-01 01:02:00,
2013-02-28 20:07:00,40.7,29.9,29.75,WNW,298,6.6,6.6,65,0.00,,,0.03,WX3IN1Plus v1.30,2013-03-01 01:07:00,
2013-02-28 20:12:00,40.7,30.2,29.76,WNW,302,1.1,7.5,66,0.00,,,0.03,WX3IN1Plus v1.30,2013-03-01 01:12:00,
2013-02-28 20:17:00,40.6,29.9,29.76,WNW,302,0.0,6.7,66,0.00,,,0.03,WX3IN1Plus v1.30,2013-03-01 01:17:00,
2013-02-28 20:22:00,40.7,30.2,29.76,West,268,0.8,1.3,66,0.00,,,0.03,WX3IN1Plus v1.30,2013-03-01 01:22:00,
2013-02-28 20:27:00,40.6,29.9,29.76,WSW,253,1.4,4.0,66,0.00,,,0.03,WX3IN1Plus v1.30,2013-03-01 01:27:00,
2013-02-28 20:32:00,40.4,29.7,29.76,WSW,258,0.0,2.7,66,0.00,,,0.03,WX3IN1Plus v1.30,2013-03-01 01:32:00,
2013-02-28 20:37:00,40.4,29.7,29.76,WNW,292,0.0,1.2,66,0.00,,,0.03,WX3IN1Plus v1.30,2013-03-01 01:37:00,
2013-02-28 20:42:00,40.5,30.4,29.77,WNW,292,0.0,0.0,67,0.00,,,0.03,WX3IN1Plus v1.30,2013-03-01 01:42:00,
2013-02-28 20:47:00,40.4,30.2,29.77,WSW,250,0.0,2.9,67,0.00,,,0.03,WX3IN1Plus v1.30,2013-03-01 01:47:00,
2013-02-28 20:52:00,40.3,30.2,29.77,WNW,295,0.0,3.1,67,0.00,,,0.03,WX3IN1Plus v1.30,2013-03-01 01:52:00,
2013-02-28 20:57:00,40.3,30.2,29.77,West,281,0.0,2.6,67,0.00,,,0.03,WX3IN1Plus v1.30,2013-03-01 01:57:00,
2013-02-28 21:02:00,40.2,30.2,29.77,West,279,0.0,2.7,67,0.00,,,0.03,WX3IN1Plus v1.30,2013-03-01 02:02:00,
2013-02-28 21:07:00,40.3,30.2,29.77,NW,323,2.7,4.2,67,0.00,,,0.03,WX3IN1Plus v1.30,2013-03-01 02:07:00,
2013-02-28 21:12:00,40.2,30.2,29.77,WNW,291,0.9,3.6,67,0.00,,,0.03,WX3IN1Plus v1.30,2013-03-01 02:12:00,
2013-02-28 21:17:00,40.2,30.2,29.78,SSW,208,0.0,1.9,67,0.00,,,0.03,WX3IN1Plus v1.30,2013-03-01 02:17:00,
2013-02-28 21:22:00,40.1,30.2,29.77,NW,315,2.4,9.6,67,0.00,,,0.03,WX3IN1Plus v1.30,2013-03-01 02:22:00,
2013-02-28 21:27:00,40.1,29.7,29.78,WNW,299,0.0,5.0,66,0.00,,,0.03,WX3IN1Plus v1.30,2013-03-01 02:27:00,
2013-02-28 21:32:00,40.0,29.3,29.77,WNW,303,0.0,3.3,66,0.00,,,0.03,WX3IN1Plus v1.30,2013-03-01 02:32:00,
2013-02-28 21:37:00,39.8,29.2,29.77,West,274,1.2,3.9,66,0.00,,,0.03,WX3IN1Plus v1.30,2013-03-01 02:37:00,
2013-02-28 21:42:00,40.0,29.3,29.77,North,354,0.6,5.5,66,0.00,,,0.03,WX3IN1Plus v1.30,2013-03-01 02:42:00,
2013-02-28 21:47:00,39.9,29.2,29.77,North,350,1.3,5.1,66,0.00,,,0.03,WX3IN1Plus v1.30,2013-03-01 02:47:00,
2013-02-28 21:52:00,40.0,29.3,29.76,NNE,15,1.6,5.9,66,0.00,,,0.03,WX3IN1Plus v1.30,2013-03-01 02:52:00,
2013-02-28 21:57:00,40.0,29.3,29.76,North,4,0.0,3.0,66,0.00,,,0.03,WX3IN1Plus v1.30,2013-03-01 02:57:00,
2013-02-28 22:02:00,39.9,29.2,29.76,NW,319,0.0,2.9,66,0.00,,,0.03,WX3IN1Plus v1.30,2013-03-01 03:02:00,
2013-02-28 22:07:00,40.2,30.2,29.76,WSW,255,1.5,2.5,67,0.00,,,0.03,WX3IN1Plus v1.30,2013-03-01 03:07:00,
2013-02-28 22:12:00,40.1,29.7,29.76,NNE,19,0.0,5.2,66,0.00,,,0.03,WX3IN1Plus v1.30,2013-03-01 03:12:00,
2013-02-28 22:17:00,40.2,29.7,29.75,NNW,347,0.0,4.9,66,0.00,,,0.03,WX3IN1Plus v1.30,2013-03-01 03:17:00,
2013-02-28 22:22:00,39.9,29.2,29.75,NNW,338,2.6,6.8,66,0.00,,,0.03,WX3IN1Plus v1.30,2013-03-01 03:22:00,
2013-02-28 22:27:00,40.2,29.7,29.75,NW,323,0.9,3.5,66,0.00,,,0.03,WX3IN1Plus v1.30,2013-03-01 03:27:00,
2013-02-28 22:32:00,40.3,29.7,29.75,NW,323,0.0,5.7,66,0.00,,,0.03,WX3IN1Plus v1.30,2013-03-01 03:32:00,
2013-02-28 22:37:00,40.4,29.7,29.75,West,272,0.0,5.8,66,0.00,,,0.03,WX3IN1Plus v1.30,2013-03-01 03:37:00,
2013-02-28 22:42:00,40.4,29.3,29.75,NNW,340,2.5,5.9,65,0.00,,,0.03,WX3IN1Plus v1.30,2013-03-01 03:42:00,
2013-02-28 22:47:00,40.6,29.7,29.76,West,277,0.0,5.2,65,0.00,,,0.03,WX3IN1Plus v1.30,2013-03-01 03:47:00,
2013-02-28 22:52:00,40.4,29.3,29.75,WNW,292,0.6,8.8,65,0.00,,,0.03,WX3IN1Plus v1.30,2013-03-01 03:52:00,
2013-02-28 22:57:00,40.6,29.7,29.76,WNW,302,2.4,6.4,65,0.00,,,0.00,WX3IN1Plus v1.30,2013-03-01 03:57:00,
2013-02-28 23:02:00,40.7,29.9,29.76,NW,312,1.1,4.3,65,0.00,,,0.00,WX3IN1Plus v1.30,2013-03-01 04:02:00,
2013-02-28 23:07:00,40.6,29.7,29.76,West,265,2.4,9.0,65,0.00,,,0.00,WX3IN1Plus v1.30,2013-03-01 04:07:00,
2013-02-28 23:12:00,40.7,29.9,29.76,NNW,331,4.4,6.9,65,0.00,,,0.00,WX3IN1Plus v1.30,2013-03-01 04:12:00,
2013-02-28 23:17:00,40.6,29.7,29.76,WSW,248,2.1,8.5,65,0.00,,,0.00,WX3IN1Plus v1.30,2013-03-01 04:17:00,
2013-02-28 23:22:00,40.7,29.9,29.76,SW,232,2.8,8.5,65,0.00,,,0.00,WX3IN1Plus v1.30,2013-03-01 04:22:00,
2013-02-28 23:27:00,40.8,29.9,29.76,WNW,285,0.8,8.7,65,0.00,,,0.00,WX3IN1Plus v1.30,2013-03-01 04:27:00,
2013-02-28 23:32:00,40.8,29.9,29.76,NW,312,10.9,10.9,65,0.00,,,0.00,WX3IN1Plus v1.30,2013-03-01 04:32:00,
2013-02-28 23:37:00,40.7,29.9,29.76,WNW,291,2.4,11.3,65,0.00,,,0.00,WX3IN1Plus v1.30,2013-03-01 04:37:00,
2013-02-28 23:42:00,40.6,29.7,29.76,NW,306,0.0,9.4,65,0.00,,,0.00,WX3IN1Plus v1.30,2013-03-01 04:42:00,
2013-02-28 23:47:00,40.6,29.7,29.76,West,262,1.4,11.8,65,0.00,,,0.00,WX3IN1Plus v1.30,2013-03-01 04:47:00,
2013-02-28 23:52:00,40.6,29.9,29.76,North,355,2.1,4.5,66,0.00,,,0.00,WX3IN1Plus v1.30,2013-03-01 04:52:00,
2013-02-28 23:57:00,40.5,29.9,29.76,NNW,337,5.3,8.0,66,0.00,,,0.00,WX3IN1Plus v1.30,2013-03-01 04:57:00,